Hourly Data Report for September 25, 2017

All times are specified in Local Standard Time (LST). Add 1 hour to adjust for Daylight Saving Time where and when it is observed.

GRISE FIORD CLIMATE
NUNAVUT

76°25'22.040" N
82°54'08.020" W
44.50 m
2402351
71971
NGC

Download Data

Hourly Data (September 2017)
Hourly Data Report for September 25, 2017
Temp Definition
°C
Dew Point Temp Definition
°C
Rel Hum Definition
%
Wind Dir Definition
10's deg

Wind Spd Definition
km/h
Visibility Definition
km
Stn Press Definition
kPa
Hmdx Definition


Wind Chill Definition


Weather Definition


TIME
00:00 -3.7 -12.4 51 3 40   100.43   -12 LegendNANA
01:00 -4.1 -13.1 50 3 38   100.41   -13 LegendNANA
02:00 -3.8 -13.4 47 2 34   100.39   -12 LegendNANA
03:00 -4.0 -13.8 47 36 23   100.36   -11 LegendNANA
04:00 -3.7 -14.1 44 3 25   100.34   -11 LegendNANA
05:00 -3.9 -13.5 47 2 29   100.37   -11 LegendNANA
06:00 -4.0 -13.4 48 3 32   100.30   -12 LegendNANA
07:00 -3.6 -13.4 47 36 39   100.27   -12 LegendNANA
08:00 -3.3 -13.3 46 4 22   100.22   -10 LegendNANA
09:00 -3.3 -13.0 47 6 45   100.26   -12 LegendNANA
10:00 -2.5 -11.8 49 2 51   100.31   -12 LegendNANA
11:00 -2.4 -10.1 55 1 42   100.29   -11 LegendNANA
12:00 -2.1 -10.5 52 3 28   100.35   -9 LegendNANA
13:00 -2.4 -10.1 56 2 48   100.38   -11 LegendNANA
14:00 -2.4 -9.7 57 2 47   100.39   -11 LegendNANA
15:00 -2.7 -8.3 65 18 9   100.53   -6 LegendNANA
16:00 -2.8 -7.9 68 18 9   100.61   -6 LegendNANA
17:00 -2.8 -8.5 65 16 1   100.65   -3 LegendNANA
18:00 -3.0 -9.1 63 19 2   100.70   -4 LegendNANA
19:00 -2.9 -9.6 60 17 4   100.70   -4 LegendNANA
20:00 -3.3 -9.9 60 11 7   100.75   -6 LegendNANA
21:00 -3.6 -10.9 57 9 6   100.76   -6 LegendNANA
22:00 -5.6 -10.3 70 10 7   100.80   -9 LegendNANA
23:00 -4.7 -10.8 63 7 9   100.82   -9 LegendNANA

Notes on Data Quality.

Legend

  • E = Estimated
  • M = Missing
  • NA = Not Available
  • ‡ = Partner data that is not subject to review by the National Climate Archives
Date modified: